Baker, MT

7:32 AM MST on February 25, 2017 (GMT -0700)
Baker Municipal

Weather History for KBHK - March, 2013

Change the Weather History Date:

Wednesday, March 6, 2013

  Actual Average Record
Temperature  
Mean Temperature 18 °F -  
Max Temperature 27 °F 34 °F 72 °F (2016)
Min Temperature 10 °F 17 °F -13 °F (2003)
Degree Days  
Heating Degree Days 46    
Moisture  
Dew Point 14 °F    
Average Humidity 77    
Maximum Humidity 82    
Minimum Humidity 71    
Precipitation  
Precipitation 0.00 in - - ()
Sea Level Pressure  
Sea Level Pressure 30.06 in    
Wind  
Wind Speed 20 mph (ESE)    
Max Wind Speed 28 mph    
Max Gust Speed 33 mph    
Visibility 10 miles    
Events      
Averages and records for this station are not official NWS values.
T = Trace of Precipitation, MM = Missing Value Source: NWS Daily Summary

Daily Weather History Graph

Daily Weather History Graph

Search for Another Location

Airport or City:

Trip Planner

Search our weather history database for the weather conditions in past years. The results will help you decide how hot, cold, wet, or windy it might be!

Date:

Astronomy

Mar. 06, 2013 Rise Set
Actual Time 6:26 AM MST 5:50 PM MST
Civil Twilight 5:56 AM MST 6:20 PM MST
Nautical Twilight 5:21 AM MST 6:55 PM MST
Astronomical Twilight 4:46 AM MST 7:30 PM MST
Moon 2:52 AM MST (3/6) 12:21 PM MST (3/6)
Length of Visible Light 12h 24m
Length of Day
11h 24m
Waning Crescent, 29% of the Moon is Illuminated
Mar 6
Waning Crescent
Mar 11
New
Mar 19
First Quarter
Mar 27
Full
Apr 2
Last Quarter

Hourly Weather History & Observations

Time (MST) Temp. Windchill Dew Point Humidity Pressure Visibility Wind Dir Wind Speed Gust Speed Precip Events Conditions
12:51 AM 14.0 °F -3.9 °F 8.1 °F 77% 30.29 in 10.0 mi SE 20.7 mph - N/A   Clear
1:51 AM 12.9 °F -4.9 °F 7.0 °F 77% 30.28 in 10.0 mi SE 19.6 mph - N/A   Clear
2:51 AM 10.9 °F -3.4 °F 6.1 °F 81% 30.27 in 10.0 mi East 11.5 mph - N/A   Clear
3:51 AM 10.9 °F -5.9 °F 6.1 °F 81% 30.26 in 10.0 mi ESE 16.1 mph - N/A   Clear
4:51 AM 12.0 °F -4.0 °F 6.1 °F 77% 30.26 in 10.0 mi ESE 15.0 mph - N/A   Clear
5:51 AM 12.0 °F -4.0 °F 7.0 °F 80% 30.26 in 10.0 mi ESE 15.0 mph - N/A   Clear
6:51 AM 12.0 °F -5.6 °F 7.0 °F 80% 30.25 in 10.0 mi ESE 18.4 mph - N/A   Clear
7:51 AM 12.9 °F -3.9 °F 8.1 °F 81% 30.24 in 10.0 mi ESE 17.3 mph - N/A   Clear
8:51 AM 16.0 °F -0.9 °F 10.0 °F 77% 30.20 in 10.0 mi SE 19.6 mph - N/A   Clear
9:51 AM 19.0 °F 3.2 °F 12.0 °F 74% 30.18 in 10.0 mi ESE 19.6 mph 27.6 mph N/A   Partly Cloudy
10:27 AM 19.4 °F 3.2 °F 14.0 °F 80% 30.03 in 10.0 mi SE 20.7 mph 27.6 mph N/A   Mostly Cloudy
10:51 AM 21.0 °F 5.4 °F 14.0 °F 74% 30.15 in 10.0 mi SE 20.7 mph - N/A   Mostly Cloudy
11:51 AM 21.9 °F 4.5 °F 15.1 °F 75% 30.12 in 10.0 mi SE 27.6 mph 32.2 mph N/A   Mostly Cloudy
12:35 PM 23.0 °F 6.3 °F 15.8 °F 74% 29.95 in 10.0 mi SE 26.5 mph - N/A   Scattered Clouds
12:51 PM 24.1 °F 8.3 °F 16.0 °F 71% 30.07 in 10.0 mi SE 24.2 mph - N/A   Partly Cloudy
1:13 PM 24.8 °F 9.3 °F 17.6 °F 74% 29.92 in 10.0 mi ESE 24.2 mph 31.1 mph N/A   Mostly Cloudy
1:51 PM 24.1 °F 7.7 °F 18.0 °F 77% 30.02 in 10.0 mi ESE 26.5 mph - N/A   Overcast
2:51 PM 25.0 °F 8.6 °F 18.0 °F 75% 30.01 in 10.0 mi ESE 27.6 mph 33.4 mph N/A   Overcast
3:30 PM 26.6 °F 11.4 °F 19.4 °F 74% 29.87 in 10.0 mi ESE 25.3 mph - N/A   Scattered Clouds
3:51 PM 26.1 °F 11.3 °F 19.0 °F 75% 29.99 in 10.0 mi ESE 23.0 mph - N/A   Clear
4:51 PM 27.0 °F 13.9 °F 19.9 °F 75% 29.97 in 10.0 mi East 18.4 mph - N/A   Clear
5:51 PM 26.1 °F 12.0 °F 19.9 °F 78% 29.95 in 10.0 mi ESE 20.7 mph - N/A   Clear
6:51 PM 25.0 °F 10.6 °F 18.0 °F 75% 29.95 in 10.0 mi ESE 20.7 mph - N/A   Clear
7:51 PM 24.1 °F 9.4 °F 17.1 °F 75% 29.94 in 10.0 mi ESE 20.7 mph - N/A   Clear
8:51 PM 21.9 °F 6.2 °F 16.0 °F 78% 29.93 in 10.0 mi ESE 21.9 mph - N/A   Clear
9:51 PM 21.9 °F 6.5 °F 17.1 °F 82% 29.92 in 10.0 mi ESE 20.7 mph - N/A   Partly Cloudy
10:51 PM 21.0 °F 5.4 °F 16.0 °F 81% 29.92 in 10.0 mi ESE 20.7 mph - N/A   Partly Cloudy
11:14 PM 21.2 °F 6.4 °F 15.8 °F 80% 29.81 in 10.0 mi ESE 18.4 mph - N/A   Scattered Clouds
11:27 PM 21.2 °F 6.0 °F 15.8 °F 80% 29.80 in 10.0 mi ESE 19.6 mph - N/A   Mostly Cloudy
11:51 PM 21.0 °F 4.6 °F 16.0 °F 81% 29.90 in 10.0 mi ESE 23.0 mph - N/A   Overcast